Terminal Aerodrome Forecast
Issued by NWS Bismarck, ND

Home | Current Version | Previous Version | Graphics & Text | Print | Product List | Glossary On
Versions: 1 2 3 4 5 6 7 8 9 10 11 12 13
000
FTUS43 KBIS 312300
TAFISN
TAF
KISN 312338Z 0100/0124 01009KT P6SM BKN070
     FM011700 29011G17KT P6SM BKN050=

USA.gov is the U.S. government's official web portal to all federal, state and local government web resources and services.